Main page
METAR-TAF:

METAR-TAF

Airports :

South Big Horn County Airport

Greybull, Wyoming, United States

latitude: 44-30-57N, longitude: 108-04-33W, elevation: 3933 ft

Current weather observation

The report was made 28 minutes ago, at 19:53 UTC
Calm wind
Temperature 23°F
Humidity 86%
Pressure 30.32 in. Hg
Visibility: 10 miles
Overcast at a height of 7000 ft

METAR: KGEY 221953Z AUTO 00000KT 10SM OVC070 M05/M07 A3032 RMK AO2 SLP327 T10501067 $

Time: 13:21 (20:21 UTC)


TAF: missing

Weather observations and forecasts of more than 4000 airports (METAR and TAF reports).

The available stations are represented by yellow and red dots on the map.

Hover mouse over dot to see the name of the station.

Then click to see weather observations and forecasts.

To change the map : click on the green buttons with a black cross to zoom in, on the green button with a dash to zoom out, or on the green arrows for adjacent maps.


METAR-TAF: